Temp
-5 -5 -4 -4 -3 -2 -2 -2 -1 -1 -1 -0 -0 -0 -0 -1 0 -0 -0 -0 1 1 0 1 3 3 3 3 1 2 0 0 1 0 1 1 1 2 2 3 3 3 2 2 2 2 2 3 2 1 2 3 3 3
-5 -5 -5 -5 -4 -3 -3 -2 -2 -1 -1 -1 -1 -1 -0 -1 -1 -1 -1 -0 -0 0 -0 1 1 2 2 2 2 2 2 2 2 -0 -1 -1 -1 -1 2 0 3 2 3 3 3 2 3 3 3 3 3 3 2 2
-5 -5 -5 -5 -5 -4 -3 -3 -2 -2 -1 -1 -1 -1 -0 -0 -1 -1 -1 -1 -0 -1 -1 -0 -0 1 1 2 2 1 1 2 1 1 1 -1 -1 -1 -2 -1 0 3 3 0 1 2 1 3 3 2 2 1 1 0
-5 -5 -5 -5 -5 -5 -4 -3 -3 -2 -2 -1 -1 -1 -1 -1 -1 -1 -1 -1 -1 -1 -0 -2 -1 -0 0 1 1 2 1 1 1 1 0 -2 -2 0 -2 -0 -1 0 2 2 2 3 3 2 3 2 1 -0 -1 -2
-5 -5 -5 -5 -5 -5 -5 -4 -3 -2 -1 -1 -1 -1 -1 -1 -1 -1 -1 -1 -1 -1 -1 -2 -2 -2 -1 -0 0 0 1 1 1 -1 -2 -3 -1 -2 -3 -4 -4 1 1 0 -1 -0 2 -1 -0 0 -1 -2 -3 -3
-5 -6 -6 -6 -6 -5 -4 -4 -3 -2 -2 -2 -1 -1 -1 -1 -1 -1 -1 -2 -1 -1 -1 -1 -4 -4 -3 -2 -1 -1 -1 -1 -1 -1 -0 -1 -1 -0 -4 -4 2 2 2 1 -2 -2 -1 -2 -2 -2 -3 -3 -4 -4
-6 -6 -6 -6 -6 -5 -4 -4 -3 -3 -2 -2 -1 -2 -1 -1 -2 -2 -2 -2 -2 -2 -2 -3 -3 -5 -4 -3 -3 -2 -2 -1 -1 -2 -2 -2 -2 -1 -3 -5 -3 -3 -3 -3 -3 -3 -3 -4 -5 -5 -5 -5 -5 -6
-6 -6 -6 -6 -5 -4 -3 -3 -2 -3 -3 -3 -2 -2 -2 -2 -2 -2 -2 -2 -2 -2 -1 -3 -4 -4 -4 -3 -3 -3 -3 -3 -3 -2 -3 -2 -3 -2 -5 -6 -6 -5 -5 -5 -6 -5 -6 -6 -7 -7 -7 -7 -7 -7
-6 -5 -4 -4 -4 -4 -3 -3 -2 -3 -3 -3 -3 -2 -2 -2 -3 -3 -2 -2 -2 -1 -2 -3 -4 -4 -4 -4 -4 -3 -3 -4 -4 -2 -2 -2 -4 -4 -7 -8 -9 -9 -8 -8 -7 -8 -8 -8 -8 -8 -8 -9 -9 -9
-6 -6 -5 -4 -4 -4 -4 -4 -3 -3 -3 -3 -2 -2 -4 -4 -4 -3 -3 -3 -2 -3 -3 -3 -3 -6 -3 -3 -3 -3 -3 -4 -6 -4 -3 -5 -4 -11 -11 -10 -10 -9 -9 -8 -8 -9 -9 -9 -9 -9 -10 -10 -10 -10
-6 -6 -5 -5 -5 -4 -4 -4 -3 -3 -3 -3 -3 -5 -4 -4 -4 -4 -4 -4 -4 -4 -4 -5 -4 -6 -5 -4 -3 -3 -5 -5 -6 -5 -4 -4 -5 -12 -12 -11 -11 -10 -10 -10 -10 -10 -10 -10 -10 -10 -10 -10 -10 -10
-6 -6 -6 -5 -5 -5 -5 -4 -4 -4 -4 -4 -4 -5 -5 -4 -4 -7 -6 -5 -5 -4 -5 -5 -5 -5 -5 -4 -4 -5 -6 -7 -6 -5 -6 -6 -12 -12 -12 -11 -11 -11 -11 -11 -11 -11 -11 -11 -11 -11 -11 -11 -11 -11
-6 -6 -6 -6 -6 -5 -5 -5 -5 -5 -4 -5 -4 -5 -5 -5 -8 -8 -9 -8 -5 -5 -6 -6 -6 -6 -6 -5 -4 -6 -5 -5 -5 -6 -7 -12 -11 -12 -12 -12 -12 -11 -11 -11 -11 -11 -11 -11 -11 -11 -11 -11 -11 -11
-7 -7 -7 -6 -7 -6 -6 -5 -5 -5 -4 -4 -4 -6 -6 -7 -7 -7 -7 -7 -9 -7 -7 -6 -6 -5 -6 -7 -6 -7 -6 -8 -8 -8 -10 -14 -11 -12 -12 -12 -12 -12 -12 -12 -12 -12 -12 -12 -12 -12 -12 -12 -12 -12
-7 -7 -7 -7 -7 -8 -6 -6 -5 -5 -5 -5 -5 -6 -6 -9 -10 -10 -10 -9 -10 -9 -7 -6 -7 -6 -5 -7 -8 -6 -8 -8 -8 -10 -12 -11 -12 -12 -12 -12 -12 -12 -12 -12 -12 -12 -12 -12 -13 -12 -12 -12 -13 -13
-6 -6 -7 -7 -7 -7 -7 -6 -6 -6 -6 -7 -8 -8 -9 -8 -9 -9 -9 -10 -10 -9 -8 -7 -8 -7 -7 -8 -7 -8 -8 -9 -11 -12 -11 -12 -12 -12 -12 -12 -12 -12 -12 -12 -12 -13 -13 -13 -13 -13 -13 -13 -13 -13
-6 -7 -7 -7 -7 -7 -7 -7 -7 -7 -8 -10 -11 -11 -11 -10 -11 -11 -11 -11 -10 -9 -7 -7 -7 -8 -11 -9 -9 -10 -10 -11 -11 -12 -12 -12 -12 -12 -12 -12 -13 -13 -13 -13 -13 -13 -13 -14 -14 -14 -14 -13 -13 -13
-7 -7 -7 -7 -7 -7 -8 -7 -8 -9 -13 -13 -12 -13 -13 -13 -13 -13 -13 -12 -11 -10 -10 -9 -9 -8 -8 -9 -10 -12 -12 -13 -12 -12 -13 -13 -13 -13 -14 -14 -14 -14 -14 -14 -14 -14 -14 -14 -14 -14 -14 -14 -14 -14
-7 -7 -8 -8 -7 -8 -8 -9 -9 -12 -14 -14 -14 -14 -14 -14 -14 -14 -13 -12 -12 -11 -11 -11 -11 -12 -11 -12 -13 -13 -14 -13 -14 -14 -14 -14 -13 -14 -14 -14 -14 -14 -14 -14 -14 -14 -14 -14 -15 -15 -15 -15 -16 -16
-7 -7 -8 -8 -8 -8 -9 -10 -11 -12 -14 -14 -14 -15 -15 -14 -14 -14 -13 -13 -12 -12 -12 -14 -14 -14 -14 -14 -14 -14 -14 -14 -14 -14 -14 -15 -14 -14 -14 -15 -15 -15 -15 -14 -14 -15 -15 -15 -15 -15 -16 -16 -16 -16
-6 -7 -7 -8 -8 -8 -10 -11 -12 -13 -14 -14 -15 -15 -15 -14 -14 -14 -14 -13 -13 -15 -14 -15 -15 -15 -15 -14 -14 -14 -14 -14 -15 -15 -15 -15 -15 -15 -15 -15 -15 -15 -15 -15 -15 -15 -15 -15 -16 -16 -16 -16 -16 -16
-7 -7 -8 -9 -9 -9 -11 -12 -13 -14 -14 -15 -15 -15 -15 -15 -16 -16 -15 -14 -16 -17 -16 -16 -15 -15 -15 -15 -15 -15 -15 -15 -15 -15 -15 -16 -15 -15 -15 -15 -15 -15 -15 -15 -15 -16 -16 -16 -16 -17 -17 -16 -16 -16
-7 -8 -9 -9 -9 -10 -13 -13 -14 -14 -18 -15 -15 -16 -17 -17 -17 -16 -16 -16 -17 -17 -16 -16 -15 -15 -15 -15 -15 -15 -15 -15 -15 -15 -15 -15 -15 -15 -15 -15 -16 -16 -15 -15 -15 -16 -16 -16 -17 -17 -16 -16 -16 -16
-8 -8 -9 -10 -11 -15 -14 -14 -14 -15 -15 -17 -20 -19 -20 -18 -17 -17 -18 -16 -17 -17 -16 -16 -15 -15 -16 -16 -16 -16 -16 -16 -15 -15 -16 -16 -15 -15 -15 -15 -15 -15 -16 -16 -16 -16 -17 -17 -17 -17 -16 -16 -16 -16
-9 -11 -11 -14 -13 -14 -21 -20 -18 -19 -19 -21 -21 -21 -21 -19 -21 -20 -18 -18 -18 -17 -17 -16 -16 -16 -16 -16 -16 -16 -16 -16 -16 -15 -16 -16 -16 -15 -15 -15 -15 -15 -16 -16 -16 -16 -16 -17 -16 -16 -16 -16 -16 -16
-15 -14 -14 -15 -15 -17 -19 -19 -21 -21 -21 -23 -20 -19 -19 -21 -21 -19 -18 -18 -18 -17 -17 -17 -17 -17 -17 -17 -16 -16 -17 -16 -16 -16 -16 -16 -16 -16 -16 -16 -16 -15 -16 -16 -16 -17 -16 -16 -16 -16 -15 -15 -15 -16
-16 -17 -15 -15 -15 -16 -17 -18 -18 -19 -21 -19 -19 -21 -22 -21 -19 -18 -19 -18 -18 -18 -17 -17 -17 -17 -17 -17 -17 -17 -17 -17 -16 -16 -16 -16 -16 -16 -16 -16 -16 -16 -16 -16 -16 -16 -16 -16 -15 -15 -15 -15 -15 -15
-14 -15 -18 -16 -16 -17 -20 -20 -20 -19 -19 -18 -19 -21 -20 -18 -18 -19 -19 -18 -18 -18 -18 -18 -18 -18 -18 -17 -17 -17 -17 -17 -17 -16 -16 -16 -16 -16 -16 -16 -16 -16 -16 -16 -16 -16 -16 -15 -16 -15 -15 -14 -14 -14
-16 -16 -15 -18 -19 -19 -19 -18 -18 -19 -19 -19 -18 -17 -18 -19 -19 -19 -19 -19 -19 -19 -19 -19 -18 -18 -18 -18 -18 -18 -17 -17 -17 -16 -16 -16 -15 -15 -16 -16 -16 -16 -16 -16 -16 -16 -15 -16 -15 -15 -15 -15 -14 -14
-17 -16 -17 -19 -21 -20 -18 -19 -19 -19 -19 -20 -20 -20 -19 -19 -19 -19 -19 -19 -19 -19 -19 -19 -19 -18 -18 -18 -17 -18 -18 -18 -18 -18 -18 -17 -17 -16 -16 -16 -16 -16 -16 -16 -16 -15 -15 -15 -14 -14 -14 -14 -14 -14
-17 -17 -18 -18 -19 -19 -19 -19 -19 -20 -20 -20 -20 -21 -20 -19 -19 -19 -19 -19 -20 -20 -19 -19 -19 -19 -19 -18 -18 -18 -18 -18 -18 -18 -18 -18 -17 -17 -16 -16 -17 -17 -16 -16 -16 -16 -15 -15 -15 -15 -15 -15 -15 -15
-18 -18 -19 -20 -19 -19 -19 -20 -20 -20 -20 -20 -21 -20 -20 -20 -19 -19 -19 -19 -19 -20 -19 -19 -19 -18 -19 -18 -19 -18 -19 -18 -18 -18 -17 -17 -17 -17 -17 -17 -17 -16 -17 -16 -16 -16 -16 -16 -16 -16 -16 -16 -16 -16
-19 -19 -19 -19 -19 -20 -20 -20 -20 -20 -20 -20 -20 -20 -20 -20 -19 -19 -19 -19 -20 -20 -19 -19 -19 -19 -19 -19 -19 -19 -19 -19 -18 -18 -18 -17 -19 -18 -17 -17 -16 -17 -17 -16 -16 -16 -16 -16 -16 -16 -16 -16 -16 -16
Height
1460 1455 1449 1444 1440 1435 1431 1426 1422 1419 1416 1414 1411 1409 1407 1405 1404 1405 1406 1407 1409 1413 1418 1418 1420 1424 1427 1431 1435 1440 1447 1451 1453 1455 1457 1461 1464 1466 1466 1464 1466 1469 1473 1476 1478 1481 1484 1480 1483 1486 1485 1485 1487 1490
1463 1458 1452 1446 1441 1437 1432 1428 1424 1420 1416 1414 1411 1410 1408 1408 1407 1405 1406 1408 1410 1414 1420 1421 1422 1425 1427 1431 1433 1439 1442 1446 1448 1451 1454 1457 1466 1468 1464 1474 1465 1471 1467 1470 1473 1476 1473 1477 1479 1481 1483 1484 1487 1488
1465 1459 1454 1448 1442 1438 1434 1430 1425 1421 1418 1415 1413 1411 1410 1410 1409 1407 1406 1406 1410 1417 1422 1424 1426 1429 1430 1431 1434 1439 1444 1446 1447 1448 1451 1456 1463 1464 1475 1475 1468 1466 1467 1473 1474 1475 1475 1476 1479 1481 1482 1483 1485 1486
1468 1461 1456 1450 1444 1438 1434 1430 1426 1422 1418 1415 1413 1412 1410 1409 1408 1407 1408 1410 1412 1415 1419 1427 1428 1430 1433 1436 1438 1440 1442 1446 1448 1450 1453 1457 1462 1462 1470 1468 1470 1469 1468 1471 1473 1472 1473 1475 1478 1480 1481 1482 1484 1484
1468 1463 1457 1451 1445 1440 1434 1430 1426 1422 1418 1415 1413 1412 1411 1410 1410 1411 1412 1413 1413 1416 1419 1426 1430 1435 1436 1438 1440 1443 1445 1447 1450 1454 1457 1462 1461 1464 1467 1469 1472 1465 1467 1472 1476 1472 1471 1475 1476 1478 1479 1481 1481 1481
1470 1464 1458 1452 1446 1440 1436 1431 1427 1422 1417 1415 1413 1412 1412 1410 1412 1412 1413 1414 1414 1417 1421 1429 1438 1439 1437 1436 1440 1443 1446 1450 1453 1457 1460 1460 1461 1463 1471 1474 1462 1463 1463 1466 1470 1473 1473 1474 1475 1477 1478 1479 1479 1478
1470 1464 1458 1453 1447 1440 1436 1431 1428 1425 1415 1417 1415 1415 1414 1413 1414 1414 1418 1419 1418 1420 1424 1434 1439 1438 1439 1441 1444 1447 1450 1453 1455 1458 1461 1461 1462 1462 1466 1474 1466 1464 1466 1468 1469 1471 1472 1474 1475 1476 1477 1477 1477 1476
1473 1465 1459 1453 1447 1441 1436 1430 1427 1426 1425 1423 1419 1419 1418 1418 1418 1419 1420 1421 1421 1423 1424 1429 1436 1439 1441 1443 1447 1450 1452 1455 1457 1459 1461 1461 1464 1464 1467 1466 1465 1466 1468 1468 1470 1471 1472 1474 1474 1474 1474 1474 1473 1473
1473 1468 1461 1455 1449 1443 1437 1430 1428 1428 1427 1426 1425 1423 1423 1422 1422 1424 1424 1424 1424 1428 1427 1429 1435 1440 1443 1445 1448 1450 1451 1455 1457 1457 1458 1460 1460 1461 1464 1465 1466 1467 1468 1469 1469 1470 1471 1471 1472 1472 1472 1472 1472 1470
1475 1469 1463 1457 1451 1446 1441 1436 1434 1432 1430 1428 1427 1426 1426 1427 1427 1428 1427 1428 1427 1428 1430 1432 1436 1442 1445 1446 1448 1452 1453 1453 1459 1457 1457 1459 1457 1465 1466 1467 1467 1467 1468 1468 1468 1469 1470 1471 1472 1471 1471 1470 1469 1468
1476 1470 1465 1459 1454 1449 1444 1439 1436 1434 1433 1431 1429 1429 1430 1430 1430 1430 1430 1431 1432 1433 1435 1437 1438 1442 1445 1446 1448 1450 1452 1454 1460 1458 1458 1457 1458 1466 1466 1466 1467 1468 1468 1469 1470 1470 1470 1470 1470 1469 1468 1467 1465 1464
1475 1471 1465 1460 1455 1450 1446 1442 1438 1437 1435 1435 1434 1432 1432 1432 1432 1434 1435 1436 1435 1435 1438 1438 1441 1442 1445 1446 1447 1451 1454 1456 1459 1455 1459 1458 1466 1466 1466 1467 1468 1469 1469 1470 1470 1469 1469 1468 1468 1466 1464 1463 1462 1460
1474 1469 1464 1459 1455 1451 1446 1443 1440 1438 1436 1435 1434 1434 1433 1435 1439 1441 1447 1442 1437 1438 1440 1441 1443 1444 1446 1447 1447 1449 1451 1454 1454 1457 1458 1466 1465 1466 1467 1468 1469 1469 1469 1469 1468 1468 1466 1465 1464 1462 1460 1459 1457 1454
1471 1466 1462 1458 1454 1449 1445 1442 1439 1436 1435 1435 1433 1434 1434 1436 1436 1435 1437 1437 1440 1440 1441 1441 1443 1443 1445 1446 1446 1453 1451 1453 1458 1459 1462 1465 1466 1467 1467 1468 1467 1467 1466 1465 1464 1462 1461 1459 1458 1456 1454 1452 1449 1447
1470 1463 1459 1455 1451 1447 1443 1440 1437 1436 1436 1435 1434 1433 1433 1436 1437 1437 1438 1439 1439 1440 1441 1442 1443 1444 1444 1446 1446 1447 1455 1457 1455 1459 1462 1463 1464 1465 1466 1466 1465 1463 1462 1460 1459 1457 1456 1454 1452 1449 1448 1445 1442 1439
1466 1462 1458 1452 1448 1444 1441 1438 1436 1436 1435 1435 1436 1437 1438 1437 1439 1439 1439 1440 1440 1440 1441 1442 1442 1444 1444 1445 1447 1449 1452 1455 1460 1460 1461 1463 1463 1463 1463 1462 1461 1460 1459 1457 1456 1453 1451 1449 1446 1443 1440 1438 1435 1433
1466 1462 1457 1452 1447 1443 1440 1437 1436 1436 1436 1438 1441 1441 1441 1442 1442 1442 1441 1441 1441 1442 1441 1441 1442 1443 1446 1449 1450 1451 1454 1457 1458 1460 1461 1461 1462 1461 1461 1460 1459 1458 1456 1454 1451 1449 1446 1443 1440 1437 1434 1432 1429 1426
1463 1460 1455 1451 1446 1442 1439 1438 1438 1439 1442 1444 1444 1445 1444 1444 1444 1443 1443 1442 1443 1442 1442 1443 1444 1443 1444 1446 1450 1455 1456 1458 1459 1459 1460 1460 1460 1459 1459 1457 1456 1454 1451 1449 1446 1443 1440 1438 1435 1432 1429 1425 1422 1418
1463 1457 1454 1450 1446 1444 1443 1442 1442 1444 1446 1447 1447 1447 1446 1445 1445 1444 1444 1443 1443 1444 1444 1445 1446 1449 1450 1453 1454 1456 1457 1457 1458 1458 1458 1458 1457 1457 1455 1454 1452 1450 1447 1444 1442 1439 1436 1434 1431 1428 1424 1420 1415 1412
1461 1456 1452 1449 1447 1445 1446 1446 1447 1447 1448 1449 1448 1448 1448 1447 1446 1446 1445 1445 1445 1445 1446 1448 1451 1452 1453 1454 1455 1456 1456 1456 1456 1456 1456 1456 1455 1454 1452 1450 1448 1446 1443 1440 1438 1436 1433 1429 1427 1423 1419 1415 1412 1407
1460 1456 1452 1451 1448 1448 1449 1449 1449 1450 1450 1450 1449 1449 1449 1448 1447 1447 1447 1447 1447 1448 1450 1452 1452 1453 1454 1454 1455 1455 1455 1455 1455 1455 1454 1452 1452 1450 1449 1447 1445 1443 1440 1437 1434 1431 1428 1425 1420 1416 1412 1408 1404 1400
1460 1456 1453 1451 1450 1450 1451 1452 1453 1452 1451 1451 1450 1449 1449 1450 1449 1449 1449 1449 1451 1452 1452 1452 1453 1453 1454 1454 1454 1454 1454 1454 1454 1453 1452 1451 1449 1447 1446 1444 1441 1439 1437 1434 1430 1427 1422 1419 1414 1411 1407 1403 1399 1394
1458 1456 1454 1453 1453 1453 1457 1454 1453 1452 1452 1452 1451 1451 1451 1451 1451 1451 1451 1452 1452 1453 1453 1453 1453 1453 1453 1454 1454 1454 1453 1453 1452 1451 1450 1449 1447 1445 1443 1441 1439 1436 1432 1430 1427 1423 1418 1414 1410 1406 1403 1398 1393 1387
1457 1456 1455 1455 1455 1457 1457 1455 1455 1454 1453 1453 1454 1454 1453 1451 1451 1451 1452 1453 1454 1454 1454 1454 1454 1453 1454 1454 1453 1453 1452 1451 1450 1449 1448 1446 1444 1442 1440 1438 1436 1434 1430 1426 1423 1418 1414 1410 1406 1401 1397 1392 1387 1382
1459 1459 1459 1458 1459 1458 1460 1458 1457 1457 1459 1457 1458 1456 1454 1453 1453 1454 1453 1455 1455 1455 1455 1455 1454 1454 1454 1454 1453 1452 1451 1449 1448 1446 1446 1444 1441 1439 1438 1436 1434 1431 1427 1423 1419 1415 1410 1406 1401 1397 1392 1387 1382 1378
1458 1460 1460 1460 1462 1462 1462 1464 1463 1463 1461 1461 1458 1456 1455 1455 1457 1457 1454 1455 1456 1456 1455 1455 1455 1455 1455 1454 1453 1451 1450 1448 1446 1445 1444 1441 1439 1436 1434 1432 1429 1426 1424 1421 1416 1411 1407 1402 1398 1393 1388 1383 1379 1374
1459 1459 1459 1461 1461 1462 1462 1462 1461 1462 1463 1461 1458 1457 1458 1461 1458 1456 1455 1455 1456 1456 1456 1456 1455 1455 1454 1453 1452 1450 1449 1447 1445 1443 1441 1439 1437 1435 1433 1431 1427 1424 1420 1417 1414 1409 1404 1400 1395 1391 1386 1382 1378 1372
1456 1457 1459 1460 1460 1461 1461 1461 1461 1461 1460 1460 1460 1460 1460 1457 1457 1456 1456 1456 1456 1456 1456 1455 1455 1454 1453 1451 1450 1448 1447 1445 1443 1441 1439 1438 1435 1433 1432 1429 1427 1423 1419 1415 1411 1407 1403 1399 1394 1390 1386 1381 1377 1372
1456 1457 1458 1458 1459 1460 1460 1461 1460 1460 1460 1460 1459 1457 1457 1456 1456 1455 1456 1456 1456 1455 1455 1454 1453 1452 1451 1450 1448 1446 1444 1442 1440 1437 1435 1433 1431 1431 1429 1426 1423 1419 1414 1410 1407 1405 1400 1397 1393 1389 1385 1381 1376 1372
1457 1457 1457 1458 1459 1459 1459 1459 1459 1458 1458 1458 1458 1457 1456 1455 1455 1455 1454 1454 1454 1454 1453 1452 1451 1450 1448 1447 1445 1444 1443 1441 1440 1438 1434 1431 1429 1427 1424 1422 1418 1414 1410 1408 1404 1400 1397 1393 1390 1387 1383 1379 1375 1371
1457 1457 1457 1458 1458 1458 1458 1458 1457 1456 1456 1456 1456 1456 1455 1455 1454 1454 1453 1453 1453 1452 1452 1451 1450 1448 1446 1445 1443 1442 1441 1440 1438 1437 1434 1430 1427 1425 1422 1419 1415 1412 1409 1406 1401 1397 1394 1391 1387 1384 1381 1378 1374 1370
1458 1458 1458 1458 1458 1458 1457 1456 1456 1455 1455 1455 1456 1455 1455 1455 1455 1455 1454 1453 1453 1452 1451 1449 1448 1446 1444 1443 1442 1440 1439 1437 1435 1433 1430 1426 1423 1421 1419 1417 1414 1410 1407 1403 1400 1396 1393 1390 1387 1384 1381 1378 1375 1371
1458 1458 1458 1458 1458 1457 1457 1457 1456 1456 1456 1456 1456 1455 1455 1456 1456 1456 1455 1453 1453 1451 1449 1448 1446 1444 1442 1441 1440 1438 1437 1435 1433 1430 1427 1424 1421 1419 1418 1414 1411 1408 1405 1402 1399 1396 1394 1391 1388 1385 1382 1379 1376 1373
Wind_Speed
32 30 29 27 27 24 22 24 21 18 14 12 12 11 11 7 3 6 8 9 6 4 8 6 10 9 12 9 4 13 5 1 1 2 3 2 3 2 3 2 4 3 3 2 2 1 4 11 5 2 5 13 10 5
31 31 30 28 24 26 25 22 22 19 16 12 11 10 9 7 6 5 4 13 9 7 7 13 12 11 10 5 16 13 3 5 6 3 2 3 2 1 1 2 3 1 2 3 2 2 2 22 2 10 9 11 7 4
32 31 31 30 27 20 21 22 21 19 17 13 10 8 6 6 6 7 2 8 13 10 12 9 8 10 10 9 13 6 2 3 3 4 3 2 3 2 2 3 2 2 2 3 3 1 6 19 7 5 6 8 6 5
31 31 30 30 29 25 18 21 22 20 17 13 10 7 8 6 3 4 2 9 11 8 3 6 8 9 8 8 6 6 11 9 11 7 4 2 3 4 1 2 2 2 3 3 0 2 7 13 8 8 9 5 2 5
30 30 29 29 30 28 21 17 21 21 19 11 8 6 5 3 1 6 1 6 9 6 4 6 9 9 4 5 5 7 9 9 5 4 3 1 3 3 2 2 1 6 4 3 3 6 3 8 10 10 6 3 6 6
30 30 29 28 30 28 28 17 19 20 17 7 6 4 3 4 1 2 4 2 3 12 5 3 4 8 9 7 8 8 5 4 4 3 2 3 3 2 2 2 2 8 7 2 3 6 7 6 4 2 2 6 7 6
31 31 29 29 30 28 26 22 14 16 23 11 7 6 3 3 2 7 4 3 9 10 4 5 3 4 8 8 8 6 6 3 3 3 2 5 3 5 1 2 5 8 5 2 0 4 3 3 2 4 5 6 8 8
32 32 31 30 31 27 28 25 13 8 12 8 11 7 10 13 14 13 10 8 7 5 3 2 2 3 4 4 4 5 4 3 2 3 3 3 5 2 2 8 8 8 5 2 5 4 2 1 2 6 7 8 9 7
31 33 34 31 32 28 24 25 7 4 5 12 11 4 5 3 6 6 5 5 5 5 3 2 3 2 3 3 4 3 2 2 1 2 3 4 2 3 3 8 6 6 3 3 3 3 2 3 5 7 9 8 9 9
28 30 33 32 33 30 21 15 12 10 11 10 9 5 5 4 6 3 2 2 3 4 3 3 4 3 3 4 2 4 0 1 2 1 6 1 1 6 3 2 2 2 3 3 3 2 4 2 5 7 8 10 11 13
25 28 32 31 32 30 26 18 9 8 8 7 7 5 6 3 3 3 3 4 3 2 3 3 5 3 3 2 2 1 2 1 1 2 2 2 2 2 4 5 5 5 4 4 3 2 4 7 10 12 13 14 15 16
26 27 29 29 30 30 24 20 14 12 9 4 3 3 2 3 4 3 2 2 0 2 2 1 3 5 3 3 3 3 3 2 2 5 1 2 1 3 3 4 3 2 1 2 4 6 8 10 12 15 17 19 19 20
28 27 26 27 27 28 25 19 15 9 10 6 2 1 1 1 3 3 2 2 1 2 3 3 2 2 2 2 4 2 3 3 7 1 3 1 7 5 5 3 1 2 4 6 8 10 13 15 17 18 21 21 23 25
27 27 25 23 24 27 24 19 16 11 4 2 2 3 3 2 2 2 2 3 1 2 5 4 4 2 2 1 2 3 1 3 2 3 3 2 8 4 1 3 5 8 11 13 15 16 17 17 19 20 21 23 24 26
27 25 21 20 25 23 22 18 13 7 2 2 2 2 1 3 4 1 4 3 2 6 4 3 3 2 2 1 1 2 2 3 1 1 1 10 6 2 3 6 10 13 16 17 18 19 20 21 23 25 23 24 25 26
27 24 22 25 23 22 20 16 9 3 2 1 4 1 3 1 2 2 3 2 2 5 4 1 2 1 2 1 2 3 1 2 1 2 10 5 1 5 9 12 14 16 18 19 20 21 22 23 23 25 25 24 23 23
25 23 25 24 22 23 20 11 3 2 3 3 4 5 4 4 4 2 1 1 1 2 1 0 2 3 1 2 1 2 2 2 9 7 2 4 7 9 11 11 13 16 18 19 20 20 21 22 22 23 24 22 22 23
26 26 25 23 23 21 10 7 4 4 6 7 4 6 5 4 3 3 2 1 2 1 2 1 1 1 0 2 2 2 5 5 2 1 4 5 7 7 10 13 15 17 19 19 20 20 20 20 21 23 24 24 26 27
27 26 22 22 18 11 6 6 5 4 5 3 4 6 3 3 5 3 3 2 2 3 3 2 2 1 2 4 5 6 3 1 2 5 6 5 5 10 12 12 14 16 19 19 19 19 19 21 22 24 27 28 29 30
23 18 18 15 13 5 3 4 4 4 3 4 3 3 2 2 3 4 4 3 4 3 4 3 2 2 3 4 4 2 2 4 6 7 5 3 11 13 13 14 16 18 19 18 19 19 21 24 25 25 26 25 27 30
21 17 14 13 7 7 4 4 4 3 2 1 2 2 2 2 3 3 3 3 3 3 3 3 5 4 2 1 0 1 2 3 5 7 10 14 13 15 16 16 17 16 18 19 22 23 23 26 28 27 25 28 28 28
21 15 9 8 5 5 4 7 3 3 2 2 2 2 2 1 3 3 4 3 3 2 2 4 3 1 1 2 2 2 3 4 6 7 8 10 14 15 16 15 17 19 19 21 22 24 27 28 25 26 26 28 28 30
17 9 5 5 3 6 3 6 3 4 2 3 3 1 2 2 4 2 2 2 2 4 4 3 2 2 2 2 3 4 5 7 8 9 10 11 12 14 14 14 16 19 22 21 21 24 27 25 27 26 30 30 29 29
10 3 3 4 7 3 4 5 4 4 3 3 3 2 2 3 4 1 1 2 2 4 4 5 4 4 4 3 5 7 8 9 10 10 11 13 15 14 14 14 16 18 18 20 23 28 29 29 28 30 30 29 29 29
3 4 3 4 6 5 5 5 5 5 2 2 3 3 3 4 2 2 1 2 4 2 4 5 5 5 5 5 6 8 8 10 12 12 10 14 17 16 13 13 16 18 19 22 26 28 29 30 30 30 28 28 28 29
3 2 3 2 2 2 1 3 3 2 2 3 1 3 3 2 3 0 1 3 4 1 3 5 6 6 7 8 9 9 9 11 12 12 13 15 15 15 15 19 23 23 20 22 26 28 29 30 29 27 28 27 27 25
2 1 3 3 1 3 2 1 1 1 2 2 2 4 2 3 1 1 2 2 3 1 2 4 6 7 8 9 8 9 10 12 13 14 15 13 10 10 11 17 23 23 23 23 24 24 27 28 26 28 27 26 23 21
3 3 3 1 1 2 2 1 1 1 1 2 3 1 2 0 1 1 1 1 1 1 3 5 7 9 11 11 11 11 10 11 12 14 12 7 8 6 9 17 19 21 19 19 23 24 23 21 24 24 22 22 21 20
3 2 2 2 1 2 3 2 1 1 1 2 2 1 1 1 1 1 1 2 2 4 5 6 8 10 11 11 11 10 10 12 14 18 19 18 16 12 11 17 19 23 21 22 24 23 20 18 19 19 19 20 20 19
2 3 1 1 2 1 2 3 3 4 6 5 4 4 4 3 3 4 4 4 5 6 6 8 10 11 13 13 10 7 7 8 13 16 21 22 21 18 16 22 23 27 24 24 27 24 19 18 17 17 17 18 18 18
2 1 1 1 1 2 2 5 6 4 3 2 3 3 3 3 2 4 3 2 2 3 5 9 9 12 13 12 11 11 8 9 13 15 18 21 19 17 15 23 26 27 20 22 24 21 20 18 17 17 17 17 18 18
2 1 1 2 1 3 4 3 3 1 1 1 2 2 2 1 2 3 6 4 3 5 9 11 11 13 12 9 9 12 11 15 16 18 19 21 20 20 19 24 25 18 18 21 20 18 17 16 15 15 16 17 17 18
1 1 1 2 2 2 3 5 1 2 1 1 1 1 1 1 1 4 8 5 6 11 11 10 13 13 10 9 11 8 12 15 16 18 20 20 18 16 19 20 17 13 16 18 16 15 14 14 14 14 15 15 16 17
Wind_Direction
7 5 3 2 4 359 4 1 357 348 347 340 336 340 353 340 310 254 203 124 122 93 105 115 124 114 135 130 148 140 108 21 156 113 120 157 131 181 152 118 165 149 163 154 121 96 254 147 114 171 143 136 147 154
5 4 2 0 360 3 358 1 360 353 344 340 333 331 341 343 341 238 214 186 122 119 115 123 116 122 120 90 122 154 102 135 174 93 52 94 97 79 70 168 16 132 110 149 158 175 142 170 116 142 149 151 147 185
2 1 0 359 357 356 2 354 356 352 348 338 333 331 305 321 304 335 243 214 191 114 109 103 101 126 131 128 133 123 123 109 101 93 102 107 109 97 136 243 88 98 83 96 64 134 157 181 157 152 165 169 197 243
0 359 357 357 356 353 349 355 348 348 346 342 334 325 314 320 285 309 39 151 134 119 115 89 115 118 112 129 121 95 138 129 129 98 67 92 108 41 32 116 114 136 117 109 344 213 175 196 190 185 176 184 252 269
0 359 356 355 356 355 349 350 349 352 344 340 335 333 343 262 187 205 220 191 128 103 83 104 109 53 90 126 131 122 128 129 98 69 78 187 94 97 49 48 289 171 175 157 214 28 184 74 166 174 175 254 286 285
1 360 358 356 356 355 357 343 349 1 356 357 337 338 12 152 90 111 92 78 192 105 98 102 96 61 83 115 131 127 140 112 81 104 108 102 143 117 120 202 118 77 120 209 111 77 107 143 179 178 274 291 290 296
1 360 359 358 357 355 352 346 338 351 26 33 19 31 146 138 126 69 69 123 137 114 89 129 120 82 98 85 88 102 135 129 140 126 191 127 160 151 158 207 102 94 113 114 16 135 155 147 295 321 316 303 305 309
1 360 359 359 360 356 354 341 329 18 9 25 81 68 77 77 93 83 84 124 111 80 88 92 74 106 112 104 96 133 117 123 127 129 131 146 145 180 222 100 98 99 123 95 41 41 82 15 309 311 322 317 316 314
359 2 2 1 2 359 11 19 34 33 17 31 29 55 67 58 58 65 77 77 76 66 74 73 127 103 99 72 96 87 117 118 135 201 177 157 152 207 56 76 72 54 87 349 27 41 16 355 339 325 326 320 316 314
355 357 1 0 1 1 6 33 18 357 9 8 3 6 38 54 85 89 20 36 45 37 63 76 115 113 146 156 86 116 120 73 156 162 136 178 101 103 95 106 100 74 44 22 102 147 345 341 322 318 316 311 307 305
350 354 358 358 357 357 359 0 0 343 345 355 4 38 92 89 17 37 32 30 9 71 48 57 56 120 131 144 116 43 166 118 163 229 192 195 199 97 98 107 108 104 88 66 56 1 319 312 315 312 310 306 303 302
344 345 346 349 352 352 352 354 349 354 352 345 9 31 95 358 25 64 38 10 322 71 71 49 82 72 146 131 114 194 146 75 219 141 116 246 130 151 150 135 124 104 64 357 329 320 311 307 307 304 304 303 302 299
336 337 339 340 340 345 345 345 345 325 317 303 287 275 85 34 42 137 216 288 161 112 145 145 110 119 125 138 93 122 171 186 133 178 213 155 135 152 145 143 145 312 306 308 311 309 306 304 301 300 299 299 298 295
334 333 334 332 331 336 338 337 337 337 321 283 225 252 195 186 250 56 23 39 84 85 144 136 124 138 125 133 133 150 180 105 204 216 204 168 159 155 109 1 334 316 310 314 316 313 312 311 309 306 303 303 300 297
337 340 339 332 332 335 336 334 333 329 273 288 311 265 115 112 68 90 106 99 103 142 137 122 115 194 150 133 178 111 56 247 139 168 121 139 154 173 307 316 316 315 318 319 321 320 318 316 313 310 310 305 302 301
344 349 343 343 342 342 341 337 333 314 266 3 39 19 25 249 108 88 75 98 119 156 160 115 115 109 191 130 130 206 121 199 172 83 124 143 231 310 319 320 318 316 316 316 316 316 314 314 313 312 311 311 309 302
348 348 343 345 345 340 339 341 338 17 44 48 37 36 19 39 32 38 28 25 80 132 290 11 173 186 80 97 134 34 87 67 113 112 145 284 313 317 313 312 313 313 314 314 313 313 312 313 312 310 311 315 312 308
343 339 337 337 339 341 347 9 31 47 56 34 25 11 19 33 39 22 18 25 89 48 22 66 94 206 194 147 93 87 99 119 118 244 284 304 306 309 318 320 318 318 318 318 318 317 316 318 318 318 319 320 314 311
337 335 337 338 345 346 351 12 25 73 60 56 22 12 32 35 46 48 39 57 104 106 95 56 72 75 86 58 93 112 107 29 282 309 331 342 331 333 333 326 323 326 327 328 328 326 324 323 321 322 320 318 313 315
343 344 347 349 353 3 10 26 28 55 57 18 23 4 10 9 32 45 44 62 94 63 51 42 50 67 86 124 124 165 271 303 316 333 14 306 321 329 338 336 332 331 331 333 331 329 325 322 322 319 315 313 308 306
350 352 356 2 16 28 53 20 37 42 26 19 7 46 335 21 24 19 17 29 59 46 80 78 106 105 101 100 353 310 306 325 334 333 324 324 336 338 338 338 332 333 333 333 330 328 326 326 326 324 323 321 322 319
342 340 343 358 19 31 49 24 11 1 13 354 357 16 22 34 3 7 356 54 66 57 114 133 122 93 12 10 15 4 346 339 334 331 328 321 325 336 339 339 336 336 337 336 332 329 329 330 328 327 321 321 318 314
340 344 355 6 20 16 15 358 8 6 56 349 350 30 37 28 357 356 63 64 86 104 103 88 68 40 43 55 24 0 347 341 342 341 335 332 336 339 337 343 341 337 333 334 334 331 332 335 332 329 324 321 323 321
342 0 18 33 24 16 347 5 3 356 2 15 22 346 341 331 346 44 92 75 132 109 72 54 51 67 74 42 8 353 343 336 336 344 340 335 336 341 340 341 342 344 336 332 337 339 338 335 332 333 331 329 329 329
340 3 24 27 25 10 20 351 354 27 338 334 18 334 328 344 31 29 108 83 127 77 50 45 48 50 44 23 5 353 346 342 340 342 350 337 335 333 338 341 344 349 345 343 341 338 340 340 336 336 335 335 334 330
83 17 51 74 10 55 306 343 3 315 340 336 305 314 343 5 52 328 56 129 167 149 47 40 37 31 19 7 0 1 354 345 341 340 343 338 331 326 334 340 342 347 348 344 343 339 337 339 338 340 341 345 342 333
117 232 113 78 340 299 309 271 303 304 317 303 328 351 37 31 336 56 45 150 160 74 25 13 6 359 352 349 346 344 344 342 341 340 340 337 329 324 330 341 342 341 342 342 339 340 338 336 342 343 343 346 348 347
111 135 141 307 243 206 168 301 216 244 289 325 309 324 164 274 28 328 247 189 205 316 335 343 345 342 340 337 338 338 339 338 339 339 342 346 352 336 334 347 342 343 335 336 346 340 333 338 338 336 340 344 349 356
91 65 2 61 154 205 208 230 348 252 292 349 296 307 349 277 294 291 265 253 285 303 317 325 326 327 328 330 329 328 331 334 338 346 352 353 352 357 345 348 344 349 346 343 345 339 333 332 329 333 335 339 345 351
54 4 80 168 156 221 200 218 239 280 291 274 262 282 296 300 307 306 284 275 289 311 324 331 330 331 333 334 338 346 336 340 350 350 346 342 340 343 347 352 346 350 350 341 335 337 336 335 334 334 338 342 345 349
354 41 47 249 261 250 283 302 301 300 290 285 268 262 280 309 1 23 17 347 325 335 338 342 343 338 334 334 334 339 347 346 344 339 337 336 335 336 343 354 345 340 336 336 338 340 341 344 346 349 352 355 357 358
13 87 25 335 301 322 326 345 320 318 321 349 336 342 359 44 53 18 3 352 335 330 337 334 339 344 339 333 333 332 331 336 336 334 334 337 339 340 349 343 327 332 336 340 344 346 349 352 354 356 359 2 4 8
41 50 19 326 332 1 335 342 351 329 311 331 323 357 22 85 78 4 353 350 345 338 345 344 339 337 334 330 332 330 331 334 333 335 331 328 325 328 332 319 329 333 337 345 350 355 0 5 7 10 12 12 14 15